Flag for Germany Weather past 2 weeks in Mühlhausen/Thüringen, Thuringia, Germany

Now
40 °F

Overcast.


Feels Like: 32 °F
Forecast: 34 / 41 °F
Wind: 15 mph from West

Location: Erfurt-Bindersleben

Current Time: Dec 20, 2014 at 2:46:45 PM

Latest Report: Dec 20, 2014 at 2:00 PM


Visibility: 22 mi

Pressure: 29.99 "Hg

Humidity: 77%

Dew point: 34 °F

Location of Mühlhausen/ThüringenLocation

Historic Weather in Mühlhausen/Thüringen — Graph

°F

Mühlhausen/Thüringen temperature yesterday

Maximum temperature yesterday: 53 °F (at 12:00 AM)
Minimum temperature yesterday: 39 °F (at 11:00 PM)
Average temperature yesterday: 49 °F

Past Weeks' High & Low Weather Summary

 TemperatureHumidityPressure
High54 °F (Dec 18, 11:00 PM)100% (Dec 5, 1:00 PM)30.44 "Hg (Dec 5, 1:00 PM)
Low25 °F (Dec 9, 5:00 AM)75% (Dec 8, 3:00 PM)29.50 "Hg (Dec 12, 5:00 PM)
Average38 °F90%29.99 "Hg
* Reported Dec 5 1:00 PM — Dec 20 1:00 PM, Mühlhausen/Thüringen, Weather by CustomWeather, © 2014

Note: Actual official high and low records may vary slightly from our data, if they occured in-between our weather recording intervals... More about our weather records

Advertising

Mühlhausen/Thüringen weather history for previous 24 hours

 ConditionsComfort  
Time TempWeatherWind HumidityBarometerVisibility
1:00 PM
Dec 20
40 °FOvercast.15 mph80%30.02 "Hg25 mi
12:00 PM40 °FOvercast.16 mph76%30.03 "Hg19 mi
11:00 AM40 °FOvercast.16 mph75%30.05 "Hg25 mi
10:00 AM40 °FOvercast.14 mph75%30.06 "Hg25 mi
9:00 AM39 °FPartly sunny.12 mph77%30.09 "Hg25 mi
8:00 AM39 °FPassing clouds.13 mph78%30.09 "Hg25 mi
7:00 AM40 °FOvercast.9 mph77%30.10 "Hg31 mi
6:00 AM40 °FPassing clouds.10 mph77%30.09 "Hg31 mi
5:00 AM39 °FPassing clouds.9 mph78%30.10 "Hg31 mi
4:00 AM40 °FPassing clouds.10 mph79%30.09 "Hg31 mi
3:00 AM39 °FPassing clouds.10 mph79%30.09 "Hg31 mi
2:00 AM39 °FPassing clouds.10 mph82%30.07 "Hg31 mi
1:00 AM39 °FPassing clouds.8 mph82%30.07 "Hg31 mi
12:00 AM38 °FPassing clouds.7 mph83%30.06 "Hg31 mi
11:00 PM
Dec 19
39 °FPassing clouds.9 mph83%30.04 "Hg31 mi
10:00 PM40 °FPassing clouds.7 mph78%30.00 "Hg31 mi
9:00 PM42 °FPassing clouds.8 mph78%29.98 "Hg31 mi
8:00 PM45 °FPassing clouds.9 mph81%29.94 "Hg25 mi
7:00 PM46 °FOvercast.7 mph92%29.89 "Hg25 mi
6:00 PM46 °FLight rain. Overcast.10 mph82%29.86 "Hg19 mi
5:00 PM49 °FLight rain. Overcast.13 mph89%29.82 "Hg16 mi
4:00 PM50 °FLight rain. Overcast.14 mph87%29.80 "Hg19 mi
3:00 PM50 °FLight rain. Overcast.14 mph86%29.80 "Hg19 mi
2:00 PM50 °FLight rain. Overcast.15 mph86%29.80 "Hg19 mi
Weather by CustomWeather, © 2014

See weather overviewHow to use our weather pages